[[{"header":{"parameterUnit":"m.s-1","parameterCategory":1,"la1":30.2991,"la2":30.254,"lo1":-89.0895,"lo2":-89.0444,"dy":0.0017,"dx":0.0017,"nx":28,"ny":28,"refTime":"2024-05-16T03:00:00:Z","depth":0,"parameterNumber":2,"parameterNumberName":"U-component_of_WINDS"},"data":[0,0,0,0,0,0,0,0,0,0,0,0,0,0,0,0,0,0,0,0,0,0,0,0,0,0,0,0,0,0,0,0,0,0,0,0,0,0,0,0,0,0,0,0,0,0,0,0,0,0,0,0,0,0,0,0,0,0,-0.0157,-0.0158,0,-0.025,-0.0251,-0.0252,-0.032,-0.032,-0.0321,-0.0322,-0.0419,-0.042,-0.0423,0,0,0,0,0,0,0,0,0,0,0,0,0,-0.0042,-0.0043,-0.0157,-0.0158,-0.0159,-0.025,-0.0251,-0.0252,-0.032,-0.032,-0.0321,-0.0322,-0.0418,-0.042,-0.0423,0,0,0,0,0,0,0,0,0,0,0,0,0,-0.0109,-0.0044,-0.0157,-0.0204,-0.0209,-0.0249,-0.0251,-0.0253,-0.032,-0.032,-0.0321,-0.0322,-0.0417,-0.042,-0.0423,-0.0425,0,0,-0.0432,-0.0434,0,0,0,0,0,0,0,0,-0.0105,-0.0113,-0.0196,-0.0201,-0.0207,-0.0274,-0.0246,-0.031,-0.0319,-0.0278,-0.0322,-0.0323,-0.037,-0.0377,-0.0392,-0.0429,-0.0433,-0.0433,-0.0435,-0.0436,-0.0437,0,0,0,0,0,0,0,-0.01,-0.0109,-0.0194,-0.0197,-0.0203,-0.0221,-0.0232,-0.0258,-0.0318,-0.0281,-0.0286,-0.0296,-0.0373,-0.0389,-0.0395,-0.0435,-0.0433,-0.0435,-0.0437,-0.0438,-0.0479,-0.0479,0,0,0,0,0,0,-0.0088,-0.0105,-0.0191,-0.0197,-0.0157,-0.0223,-0.0234,-0.0252,-0.0318,-0.0329,-0.0296,-0.0299,-0.0384,-0.0392,-0.0399,-0.0406,-0.0436,-0.0439,-0.044,-0.048,-0.0479,-0.0478,0,0,0,0,0,0,-0.0085,-0.0095,-0.0187,-0.0152,-0.0165,-0.0224,-0.0242,-0.0253,-0.0269,-0.0328,-0.034,-0.0301,-0.0385,-0.0395,-0.0418,-0.0411,-0.044,-0.0443,-0.0481,-0.048,-0.0479,-0.042,0,0,0,0,0,0,-0.0081,-0.0093,-0.0094,-0.0152,-0.0167,-0.0204,-0.0242,-0.0254,-0.0274,-0.028,-0.0337,-0.0347,-0.0386,-0.0413,-0.0421,-0.0415,-0.0445,-0.0482,-0.0481,-0.0479,-0.0423,-0.0417,-0.0412,0,0,0,0,0,-0.0077,-0.0074,-0.0093,-0.0103,-0.0169,-0.0203,-0.0212,-0.0256,-0.0273,-0.0275,-0.0313,-0.0345,-0.041,-0.0415,-0.0424,-0.0419,-0.0483,-0.0481,-0.0479,-0.0425,-0.0418,-0.0412,0,0,0,0,0,0,-0.0014,-0.0082,-0.0105,-0.012,-0.0155,-0.0214,-0.0218,-0.0247,-0.0279,-0.0283,-0.0338,-0.035,-0.0368,-0.0396,-0.04,-0.0425,-0.045,-0.0451,-0.0406,-0.04,-0.0394,-0.0387,-0.0448,0,0,0,0,0,-0.0001,-0.0023,-0.0082,-0.009,-0.0106,-0.0158,-0.0175,-0.0206,-0.0245,-0.0261,-0.0301,-0.0338,-0.0367,-0.0385,-0.0415,-0.0427,-0.0441,-0.0429,-0.0423,-0.0418,-0.0418,-0.0428,-0.0424,-0.0473,-0.0473,-0.0473,0,0,0.0023,-0.0017,-0.0027,-0.0078,-0.0109,-0.0131,-0.0171,-0.0192,-0.0209,-0.0264,-0.0289,-0.032,-0.0365,-0.0383,-0.0393,-0.0407,-0.0408,-0.0416,-0.0412,-0.0415,-0.0426,-0.0421,-0.0417,-0.0472,-0.0472,-0.0472,0,0,0.0057,0.0026,0.0015,-0.0015,-0.0061,-0.0096,-0.0099,-0.0154,-0.0176,-0.0202,-0.0244,-0.0266,-0.0314,-0.0345,-0.0367,-0.0346,-0.0377,-0.0354,-0.0325,-0.0334,-0.0331,-0.0327,-0.0321,-0.0318,-0.0353,-0.0353,-0.0353,0,0.0094,0.006,0.0013,-0.0006,-0.0028,-0.0078,-0.009,-0.0117,-0.0171,-0.0185,-0.02,-0.0263,-0.0297,-0.0323,-0.0318,-0.0334,-0.034,-0.0348,-0.0327,-0.0325,-0.0322,-0.0317,-0.0314,-0.035,-0.035,-0.0351,-0.0351,0,0.0107,0.0084,0.0081,0.0031,0.0008,-0.0007,-0.0057,-0.0074,-0.0103,-0.0137,-0.0163,-0.0206,-0.0246,-0.0254,-0.0284,-0.0286,-0.0293,-0.0317,-0.0343,-0.0314,-0.0309,-0.0307,-0.0346,-0.0347,-0.0348,-0.0348,0,0,0.0178,0.0102,0.0101,0.0078,0.0023,0.0003,-0.0015,-0.0053,-0.0067,-0.0103,-0.012,-0.016,-0.0183,-0.0208,-0.0241,-0.0249,-0.023,-0.0272,-0.0274,-0.0263,-0.0237,-0.0219,-0.0215,-0.0251,-0.0251,-0.0251,-0.0233,0,0.0203,0.0168,0.0125,0.0105,0.0083,0.0034,0.0018,-0.0018,-0.005,-0.0075,-0.0111,-0.0139,-0.0166,-0.0182,-0.0191,-0.023,-0.0226,-0.0232,-0.0269,-0.027,-0.0257,-0.0213,-0.0194,-0.0175,-0.0232,-0.0231,-0.0231,0,0.0227,0.0195,0.0173,0.0119,0.0107,0.0094,0.0055,0.0032,-0.001,-0.0033,-0.0061,-0.0097,-0.012,-0.0143,-0.0176,-0.0179,-0.0197,-0.0218,-0.0219,-0.0224,-0.0249,-0.0218,-0.017,-0.0168,-0.0229,-0.0229,-0.0229,0,0.028,0.0231,0.0211,0.0192,0.0129,0.012,0.0093,0.005,0.003,-0.0005,-0.0019,-0.0056,-0.0076,-0.0105,-0.015,-0.0162,-0.0178,-0.0205,-0.0199,-0.0198,-0.0201,-0.02,-0.0156,-0.0211,-0.0211,-0.0211,-0.0211,0,0.0312,0.03,0.0234,0.0221,0.0206,0.0156,0.0142,0.0111,0.0073,0.0053,0.0008,-0.001,-0.0068,-0.0094,-0.0129,-0.0152,-0.0161,-0.0181,-0.019,-0.0177,-0.0175,-0.019,-0.0193,-0.021,-0.021,-0.021,-0.0211,0,0.0368,0.0324,0.0298,0.0241,0.0226,0.0217,0.0167,0.0153,0.0118,0.0093,0.0084,0.0029,-0.0003,-0.0051,-0.0098,-0.0122,-0.0139,-0.0154,-0.0124,-0.013,-0.0122,-0.0123,-0.0087,-0.0085,-0.014,-0.0139,-0.0138,0,0.0391,0.0381,0.0322,0.0306,0.0281,0.0255,0.0234,0.0184,0.0164,0.0114,0.0105,0.007,0.0039,-0.0011,-0.0056,-0.0092,-0.0109,-0.0094,-0.0115,-0.0101,-0.011,-0.0109,-0.0111,-0.0089,-0.0088,-0.0087,-0.0087,0,0.0436,0.0414,0.0386,0.035,0.0326,0.0294,0.0261,0.025,0.0193,0.0172,0.0138,0.0114,0.0067,0.0031,-0.0011,-0.004,-0.0073,-0.008,-0.0081,-0.0068,-0.0051,-0.0061,-0.0112,-0.008,-0.0081,-0.0082,-0.0082,-0.0082,0.0475,0.0464,0.042,0.039,0.036,0.0329,0.0313,0.0276,0.0248,0.0205,0.0178,0.0146,0.0102,0.0042,0.0014,-0.0012,-0.0026,-0.0027,-0.0027,-0.0027,-0.0023,-0.0045,-0.002,-0.002,-0.002,-0.0021,-0.0021,0,0.0517,0.0487,0.0459,0.0414,0.039,0.0362,0.0323,0.0304,0.0277,0.024,0.021,0.0172,0.0137,0.009,0.0051,0.0039,0.0023,0.0031,0.0031,0.0024,-0.0007,-0.0003,0.0044,0.0044,0.0044,0.0044,0.0044,0.0044,0.0536,0.0514,0.0487,0.045,0.0419,0.0388,0.0368,0.034,0.031,0.0269,0.024,0.021,0.0168,0.0126,0.0093,0.008,0.0067,0.0079,0.0062,0.0033,0.0027,0.0021,0.0025,0.0077,0.0078,0.0095,0.0095,0.0096]},{"header":{"parameterUnit":"m.s-1","parameterCategory":1,"la1":30.2991,"la2":30.254,"lo1":-89.0895,"lo2":-89.0444,"dy":0.0017,"dx":0.0017,"nx":28,"ny":28,"refTime":"2024-05-16T03:00:00:Z","depth":0,"parameterNumber":3,"parameterNumberName":"V-component_of_WINDS"},"data":[0,0,0,0,0,0,0,0,0,0,0,0,0,0,0,0,0,0,0,0,0,0,0,0,0,0,0,0,0,0,0,0,0,0,0,0,0,0,0,0,0,0,0,0,0,0,0,0,0,0,0,0,0,0,0,0,0,0,7.2945,7.2945,0,7.2986,7.2986,7.2987,7.2919,7.2917,7.2915,7.2912,7.2949,7.2952,7.2955,0,0,0,0,0,0,0,0,0,0,0,0,0,7.2802,7.2805,7.2945,7.2945,7.2946,7.2986,7.2986,7.2987,7.292,7.2917,7.2914,7.2911,7.2948,7.2952,7.2956,0,0,0,0,0,0,0,0,0,0,0,0,0,7.2856,7.2806,7.2945,7.2917,7.2915,7.2986,7.2987,7.2987,7.292,7.2917,7.2913,7.291,7.2947,7.2952,7.2956,7.3054,0,0,7.2971,7.2973,0,0,0,0,0,0,0,0,7.2853,7.2861,7.2921,7.2919,7.2917,7.2944,7.295,7.3009,7.2921,7.2918,7.2912,7.2908,7.295,7.2954,7.2969,7.3056,7.3058,7.2971,7.2974,7.2976,7.2977,0,0,0,0,0,0,0,7.2849,7.2859,7.2961,7.2922,7.2919,7.2901,7.2905,7.2961,7.2953,7.2918,7.2913,7.2919,7.2948,7.2965,7.297,7.3058,7.2971,7.2975,7.2978,7.298,7.3226,7.323,0,0,0,0,0,0,7.285,7.2856,7.296,7.2962,7.2876,7.2906,7.2911,7.2939,7.2952,7.2951,7.2922,7.2916,7.2959,7.2964,7.2971,7.3086,7.2976,7.298,7.2983,7.3223,7.3227,7.3231,0,0,0,0,0,0,7.2847,7.286,7.2958,7.2908,7.2919,7.2912,7.2945,7.2941,7.2958,7.2955,7.2953,7.2941,7.2956,7.2964,7.3034,7.3086,7.2982,7.2987,7.3218,7.3224,7.3229,7.3317,0,0,0,0,0,0,7.2843,7.2859,7.2897,7.2909,7.2922,7.3023,7.2948,7.2945,7.2967,7.2959,7.2972,7.2971,7.2954,7.3028,7.3039,7.3091,7.299,7.3213,7.3221,7.3227,7.331,7.3325,7.3338,0,0,0,0,0,7.2838,7.2919,7.29,7.2913,7.297,7.3026,7.3033,7.3013,7.2972,7.3009,7.3007,7.2971,7.3079,7.3035,7.3047,7.3102,7.321,7.3219,7.3227,7.3303,7.3322,7.3338,0,0,0,0,0,0,7.2912,7.2921,7.2899,7.2987,7.3006,7.3014,7.3061,7.3034,7.3064,7.3055,7.3028,7.3031,7.3107,7.3111,7.3062,7.3197,7.3137,7.3148,7.3191,7.3209,7.3223,7.322,7.2994,0,0,0,0,0,7.2939,7.2985,7.2989,7.3066,7.3077,7.3068,7.3091,7.3075,7.3093,7.31,7.3103,7.3121,7.3159,7.3184,7.3219,7.331,7.3311,7.3353,7.3368,7.338,7.3389,7.3437,7.3455,7.3259,7.3259,7.3258,0,0,7.2993,7.3004,7.3034,7.3081,7.3094,7.3141,7.3075,7.3127,7.3161,7.3107,7.3174,7.3177,7.3195,7.3276,7.3312,7.3282,7.3444,7.339,7.34,7.3403,7.3448,7.3466,7.3483,7.3264,7.3263,7.3262,0,0,7.3118,7.3131,7.3197,7.3212,7.3233,7.3226,7.3242,7.3255,7.3255,7.3322,7.3283,7.3322,7.3388,7.3402,7.3418,7.3548,7.3515,7.356,7.3635,7.3682,7.3698,7.3711,7.3757,7.3774,7.357,7.357,7.357,0,7.3183,7.3253,7.3233,7.3289,7.331,7.3265,7.3331,7.3345,7.3376,7.3391,7.3358,7.344,7.3449,7.3532,7.3564,7.3579,7.3595,7.3558,7.3697,7.3711,7.3723,7.3766,7.3784,7.3576,7.3575,7.3574,7.3574,0,7.3332,7.3382,7.3432,7.3465,7.3492,7.3552,7.3539,7.3568,7.3549,7.3545,7.3614,7.3623,7.3659,7.3677,7.3659,7.3758,7.3739,7.3702,7.3642,7.3748,7.3788,7.3804,7.3583,7.3581,7.358,7.3578,0,0,7.3503,7.3525,7.3544,7.3558,7.3579,7.3616,7.3673,7.371,7.3735,7.3758,7.3804,7.3862,7.3828,7.3846,7.3828,7.387,7.3972,7.3827,7.3827,7.3853,7.4081,7.4108,7.4128,7.395,7.3954,7.3956,7.4079,0,7.3626,7.3727,7.3711,7.3808,7.3853,7.3811,7.3861,7.3878,7.3877,7.3913,7.391,7.3951,7.3903,7.3914,7.3953,7.3951,7.4017,7.3942,7.3992,7.3994,7.3988,7.4149,7.4178,7.4294,7.4095,7.4097,7.4099,0,7.3783,7.3814,7.3916,7.393,7.3948,7.3994,7.4026,7.4062,7.408,7.4075,7.4096,7.4071,7.4127,7.4066,7.4142,7.4091,7.4111,7.4113,7.4117,7.412,7.4053,7.4156,7.433,7.4348,7.4124,7.4122,7.412,0,7.3897,7.3964,7.4033,7.4047,7.4065,7.4098,7.4106,7.4121,7.4145,7.4172,7.4187,7.422,7.4238,7.4263,7.4247,7.4205,7.4325,7.4263,7.4322,7.4322,7.4348,7.4347,7.4528,7.4362,7.4362,7.4362,7.4361,0,7.4036,7.41,7.4085,7.4128,7.4198,7.4178,7.4247,7.425,7.4264,7.4305,7.4271,7.431,7.4287,7.4324,7.4312,7.4376,7.4384,7.4381,7.4377,7.4384,7.4384,7.4396,7.4387,7.4366,7.4365,7.4364,7.4363,0,7.4174,7.4167,7.424,7.4252,7.4256,7.4307,7.4316,7.4355,7.4351,7.4404,7.4415,7.4408,7.445,7.4437,7.4482,7.4473,7.4554,7.454,7.4549,7.4545,7.4604,7.4598,7.4798,7.4822,7.4642,7.4644,7.4645,0,7.4263,7.4311,7.4329,7.4355,7.4367,7.441,7.4434,7.4415,7.4441,7.4466,7.4502,7.4541,7.4572,7.464,7.4638,7.4672,7.4657,7.4725,7.4662,7.4668,7.4657,7.4655,7.4659,7.4737,7.4739,7.4741,7.4742,0,7.4421,7.4415,7.4452,7.4488,7.4518,7.4545,7.4569,7.4592,7.4575,7.4605,7.4649,7.4673,7.4719,7.4758,7.4789,7.4795,7.4766,7.4763,7.4778,7.4785,7.4788,7.4786,7.4582,7.4758,7.4756,7.4755,7.4754,7.4754,7.4537,7.4578,7.4597,7.4639,7.4655,7.4678,7.4716,7.4717,7.4754,7.4791,7.4778,7.4827,7.4843,7.4882,7.4893,7.493,7.4904,7.4926,7.4932,7.4937,7.4945,7.4783,7.4936,7.4935,7.4935,7.4935,7.4934,0,7.4693,7.4703,7.4742,7.4777,7.481,7.4782,7.4806,7.4835,7.488,7.4898,7.4929,7.4979,7.5017,7.5018,7.5053,7.5082,7.507,7.5092,7.5089,7.5091,7.4966,7.4949,7.5102,7.5102,7.5102,7.5102,7.5102,7.5102,7.4778,7.4846,7.4843,7.4918,7.4927,7.4977,7.4993,7.5014,7.5029,7.5086,7.5118,7.5119,7.513,7.5166,7.5199,7.5198,7.5212,7.524,7.5234,7.5117,7.51,7.5084,7.5068,7.5243,7.5243,7.5355,7.5356,7.5357]}]]